Terminal Aerodrome Forecast
Issued by NWS

Home | Current Version | Previous Version | Text Only | Print | Product List | Glossary On
Versions: 1 2 3 4 5 6 7 8 9 10 11 12 13 14 15 16 17 18 19 20 21 22 23 24 25 26 27 28 29
625
FTUS42 KCAE 010231 AAA
TAFCUB
TAF AMD
KCUB 010231Z 0103/0124 16008KT P6SM SCT020 BKN200
     FM010600 16008KT P6SM BKN015
     FM011000 18010KT P6SM BKN008
     FM011400 21014G20KT P6SM VCSH BKN015
     FM012000 21015G25KT P6SM VCTS SCT020CB BKN050=

USA.gov is the U.S. government's official web portal to all federal, state and local government web resources and services.